[[{"header":{"parameterUnit":"m.s-1","parameterCategory":1,"la1":30.2991,"la2":30.254,"lo1":-89.0895,"lo2":-89.0444,"dy":0.0017,"dx":0.0017,"nx":28,"ny":28,"refTime":"2024-08-17T03:00:00:Z","depth":0,"parameterNumber":2,"parameterNumberName":"U-component_of_WINDS"},"data":[0,0,0,0,0,0,0,0,0,0,0,0,0,0,0,0,0,0,0,0,0,0,0,0,0,0,0,0,0,0,0,0,0,0,0,0,0,0,0,0,0,0,0,0,0,0,0,0,0,0,0,0,0,0,0,0,0,0,-0.2161,-0.216,0,-0.2056,-0.2055,-0.2054,-0.1986,-0.1986,-0.1985,-0.1985,-0.1874,-0.1872,-0.1869,0,0,0,0,0,0,0,0,0,0,0,0,0,-0.2303,-0.2301,-0.2161,-0.216,-0.2159,-0.2056,-0.2055,-0.2053,-0.1986,-0.1986,-0.1985,-0.1985,-0.1875,-0.1872,-0.1869,0,0,0,0,0,0,0,0,0,0,0,0,0,-0.2224,-0.23,-0.2162,-0.2113,-0.2108,-0.2057,-0.2055,-0.2053,-0.1986,-0.1986,-0.1985,-0.1984,-0.1876,-0.1872,-0.1869,-0.1857,0,0,-0.1857,-0.1855,0,0,0,0,0,0,0,0,-0.2229,-0.2219,-0.2121,-0.2116,-0.211,-0.2034,-0.2064,-0.1987,-0.1986,-0.2032,-0.1985,-0.1984,-0.1928,-0.1919,-0.1901,-0.1852,-0.1847,-0.1856,-0.1854,-0.1852,-0.1851,0,0,0,0,0,0,0,-0.2234,-0.2223,-0.212,-0.212,-0.2113,-0.2096,-0.2084,-0.2049,-0.1984,-0.2028,-0.2023,-0.2012,-0.1924,-0.1905,-0.1898,-0.1845,-0.1857,-0.1853,-0.1851,-0.1849,-0.1783,-0.1783,0,0,0,0,0,0,-0.2248,-0.2228,-0.2123,-0.2116,-0.2169,-0.2094,-0.2081,-0.2059,-0.1985,-0.1973,-0.2012,-0.2009,-0.1912,-0.1902,-0.1894,-0.1876,-0.1852,-0.1849,-0.1847,-0.1782,-0.1783,-0.1783,0,0,0,0,0,0,-0.2251,-0.2239,-0.2127,-0.2171,-0.2155,-0.2092,-0.2068,-0.2057,-0.2037,-0.1973,-0.1961,-0.2004,-0.1911,-0.1899,-0.1867,-0.1871,-0.1847,-0.1844,-0.1781,-0.1782,-0.1783,-0.184,0,0,0,0,0,0,-0.2255,-0.224,-0.2236,-0.2171,-0.2153,-0.2103,-0.2068,-0.2055,-0.2031,-0.2026,-0.1962,-0.1951,-0.1909,-0.1873,-0.1863,-0.1865,-0.1841,-0.1781,-0.1782,-0.1783,-0.1837,-0.1843,-0.1847,0,0,0,0,0,-0.2261,-0.2255,-0.2236,-0.2223,-0.2146,-0.2103,-0.2093,-0.2046,-0.2032,-0.2026,-0.1985,-0.1953,-0.1873,-0.187,-0.1859,-0.186,-0.178,-0.1781,-0.1783,-0.1835,-0.1842,-0.1847,0,0,0,0,0,0,-0.232,-0.2246,-0.2223,-0.2197,-0.2157,-0.2092,-0.2083,-0.2054,-0.2017,-0.2013,-0.1956,-0.1942,-0.1916,-0.1884,-0.1884,-0.1845,-0.1823,-0.1822,-0.1867,-0.1872,-0.1877,-0.1885,-0.1837,0,0,0,0,0,-0.233,-0.2303,-0.2239,-0.2221,-0.2203,-0.2147,-0.2126,-0.2094,-0.205,-0.2033,-0.1989,-0.1947,-0.1912,-0.189,-0.1855,-0.1833,-0.1818,-0.1828,-0.1833,-0.1837,-0.1837,-0.1824,-0.1827,-0.1787,-0.1787,-0.1787,0,0,-0.2351,-0.2307,-0.2292,-0.2232,-0.2198,-0.217,-0.2133,-0.2105,-0.2083,-0.2028,-0.1995,-0.1962,-0.1912,-0.1885,-0.1871,-0.1858,-0.1845,-0.1839,-0.1843,-0.184,-0.1825,-0.1829,-0.1833,-0.1788,-0.1788,-0.1788,0,0,-0.2374,-0.2338,-0.232,-0.2287,-0.2235,-0.2198,-0.2194,-0.2134,-0.211,-0.2077,-0.2035,-0.2009,-0.195,-0.1916,-0.1891,-0.1904,-0.1873,-0.1894,-0.1919,-0.1907,-0.191,-0.1913,-0.1918,-0.192,-0.1894,-0.1894,-0.1894,0,-0.2405,-0.2362,-0.2314,-0.2289,-0.2264,-0.2214,-0.2196,-0.2166,-0.2105,-0.2089,-0.2075,-0.2002,-0.1964,-0.1929,-0.1933,-0.1914,-0.1908,-0.19,-0.1914,-0.1916,-0.1917,-0.1921,-0.1923,-0.1897,-0.1896,-0.1896,-0.1896,0,-0.2404,-0.2375,-0.2367,-0.2311,-0.2285,-0.2264,-0.2212,-0.2192,-0.2162,-0.2127,-0.2094,-0.2048,-0.2003,-0.1992,-0.1962,-0.1953,-0.1947,-0.1925,-0.1901,-0.1925,-0.1928,-0.1929,-0.1901,-0.19,-0.1899,-0.1898,0,0,-0.246,-0.238,-0.2378,-0.2352,-0.2293,-0.2269,-0.2246,-0.2203,-0.2187,-0.2147,-0.2126,-0.2078,-0.2058,-0.2029,-0.1996,-0.1985,-0.1999,-0.1964,-0.1962,-0.1972,-0.1988,-0.2005,-0.2008,-0.1979,-0.1979,-0.1979,-0.1992,0,-0.2475,-0.2431,-0.2387,-0.2359,-0.2331,-0.2285,-0.2264,-0.2226,-0.2193,-0.2164,-0.2127,-0.2095,-0.207,-0.2053,-0.204,-0.2,-0.2002,-0.1999,-0.1959,-0.1958,-0.1973,-0.2009,-0.2027,-0.2042,-0.1993,-0.1993,-0.1993,0,-0.2485,-0.2449,-0.2418,-0.2363,-0.235,-0.2332,-0.229,-0.2264,-0.2219,-0.2196,-0.2166,-0.2131,-0.2104,-0.2084,-0.2046,-0.2045,-0.2026,-0.2005,-0.2004,-0.1998,-0.1977,-0.2005,-0.2045,-0.2047,-0.1994,-0.1994,-0.1994,0,-0.253,-0.2474,-0.2448,-0.2428,-0.2362,-0.2351,-0.2323,-0.2278,-0.2256,-0.2219,-0.2204,-0.2164,-0.2142,-0.2112,-0.2067,-0.2057,-0.2035,-0.201,-0.2014,-0.2016,-0.2011,-0.2012,-0.2049,-0.2,-0.2,-0.2,-0.1999,0,-0.255,-0.2533,-0.2467,-0.2452,-0.2432,-0.2382,-0.2364,-0.2331,-0.2292,-0.2269,-0.2226,-0.2206,-0.2148,-0.212,-0.2085,-0.206,-0.205,-0.203,-0.2021,-0.2034,-0.2037,-0.2021,-0.2019,-0.2,-0.2,-0.2,-0.2,0,-0.2596,-0.2552,-0.2521,-0.2462,-0.2447,-0.2435,-0.2384,-0.2368,-0.2333,-0.2305,-0.2295,-0.224,-0.2206,-0.2159,-0.2109,-0.2086,-0.2065,-0.205,-0.2081,-0.2075,-0.2082,-0.2082,-0.211,-0.2112,-0.2061,-0.2062,-0.2062,0,-0.2612,-0.2598,-0.2539,-0.2521,-0.2495,-0.2467,-0.2444,-0.2395,-0.2373,-0.2323,-0.2312,-0.2275,-0.2243,-0.219,-0.2146,-0.2108,-0.2092,-0.2105,-0.2086,-0.21,-0.2093,-0.2094,-0.2093,-0.2109,-0.211,-0.2111,-0.2111,0,-0.2646,-0.2625,-0.2594,-0.2556,-0.2531,-0.2498,-0.2463,-0.2451,-0.2395,-0.2373,-0.2338,-0.2313,-0.2264,-0.2228,-0.2185,-0.2156,-0.2124,-0.2118,-0.2116,-0.213,-0.2148,-0.2139,-0.2093,-0.2117,-0.2116,-0.2116,-0.2116,-0.2115,-0.2677,-0.2663,-0.262,-0.2587,-0.2557,-0.2526,-0.2507,-0.2471,-0.2442,-0.2398,-0.2371,-0.2338,-0.2295,-0.2234,-0.2207,-0.218,-0.2167,-0.2166,-0.2165,-0.2166,-0.2171,-0.2153,-0.2172,-0.2172,-0.2172,-0.2171,-0.2171,0,-0.2709,-0.2679,-0.265,-0.2603,-0.2578,-0.2552,-0.2513,-0.2494,-0.2465,-0.2428,-0.2398,-0.2359,-0.2324,-0.2278,-0.2239,-0.2227,-0.2212,-0.2219,-0.2219,-0.2213,-0.2184,-0.2189,-0.2232,-0.2232,-0.2232,-0.2232,-0.2232,-0.2232,-0.2722,-0.2697,-0.2672,-0.2631,-0.2601,-0.2569,-0.2549,-0.2521,-0.2491,-0.245,-0.2421,-0.2392,-0.2351,-0.231,-0.2277,-0.2264,-0.2252,-0.2264,-0.2247,-0.222,-0.2215,-0.221,-0.2214,-0.2262,-0.2262,-0.2278,-0.2278,-0.2278]},{"header":{"parameterUnit":"m.s-1","parameterCategory":1,"la1":30.2991,"la2":30.254,"lo1":-89.0895,"lo2":-89.0444,"dy":0.0017,"dx":0.0017,"nx":28,"ny":28,"refTime":"2024-08-17T03:00:00:Z","depth":0,"parameterNumber":3,"parameterNumberName":"V-component_of_WINDS"},"data":[0,0,0,0,0,0,0,0,0,0,0,0,0,0,0,0,0,0,0,0,0,0,0,0,0,0,0,0,0,0,0,0,0,0,0,0,0,0,0,0,0,0,0,0,0,0,0,0,0,0,0,0,0,0,0,0,0,0,2.4574,2.4574,0,2.4578,2.4578,2.4578,2.4609,2.461,2.4611,2.4611,2.4612,2.4612,2.4611,0,0,0,0,0,0,0,0,0,0,0,0,0,2.4592,2.4592,2.4574,2.4574,2.4574,2.4578,2.4578,2.4578,2.4609,2.461,2.4611,2.4612,2.4613,2.4612,2.4611,0,0,0,0,0,0,0,0,0,0,0,0,0,2.4589,2.4592,2.4574,2.459,2.4592,2.4578,2.4578,2.4578,2.4609,2.461,2.4611,2.4612,2.4613,2.4612,2.4611,2.4581,0,0,2.4608,2.4607,0,0,0,0,0,0,0,0,2.4589,2.4588,2.4588,2.4589,2.4591,2.4594,2.4585,2.4579,2.4608,2.4602,2.4611,2.4613,2.4605,2.4605,2.4603,2.4581,2.4581,2.4608,2.4607,2.4607,2.4606,0,0,0,0,0,0,0,2.4589,2.4588,2.4575,2.4588,2.459,2.4597,2.4597,2.4584,2.4597,2.4603,2.4605,2.4605,2.4606,2.4604,2.4603,2.4581,2.4608,2.4607,2.4606,2.4606,2.4533,2.4532,0,0,0,0,0,0,2.4588,2.4588,2.4575,2.4576,2.4593,2.4595,2.4596,2.4592,2.4597,2.4599,2.4604,2.4607,2.4605,2.4604,2.4603,2.4567,2.4607,2.4606,2.4605,2.4534,2.4533,2.4531,0,0,0,0,0,0,2.4588,2.4586,2.4575,2.4583,2.4582,2.4594,2.4589,2.4591,2.4589,2.4598,2.4601,2.4599,2.4606,2.4605,2.4586,2.4568,2.4605,2.4604,2.4536,2.4534,2.4532,2.4495,0,0,0,0,0,0,2.4588,2.4586,2.4575,2.4582,2.4581,2.4558,2.4587,2.459,2.4587,2.459,2.4594,2.4596,2.4607,2.4587,2.4585,2.4567,2.4603,2.4537,2.4535,2.4533,2.4498,2.4493,2.4488,0,0,0,0,0,2.4589,2.4565,2.4575,2.4573,2.4568,2.4557,2.4557,2.457,2.4586,2.4574,2.458,2.4596,2.4571,2.4585,2.4583,2.4564,2.4539,2.4536,2.4533,2.4501,2.4494,2.4488,0,0,0,0,0,0,2.4555,2.4566,2.4577,2.4554,2.4555,2.4563,2.4549,2.4562,2.4558,2.4561,2.4577,2.4578,2.4556,2.4559,2.4575,2.4535,2.4557,2.4554,2.4534,2.4527,2.4522,2.4521,2.4602,0,0,0,0,0,2.4545,2.4536,2.4546,2.4525,2.4525,2.4537,2.4532,2.4543,2.4544,2.4544,2.4548,2.4548,2.454,2.4534,2.4527,2.4499,2.45,2.4485,2.448,2.4475,2.4472,2.4456,2.4449,2.4522,2.4522,2.4522,0,0,2.4523,2.4528,2.4522,2.4518,2.452,2.4509,2.4536,2.4524,2.4516,2.4542,2.4524,2.4527,2.4528,2.4504,2.4494,2.4505,2.4452,2.4472,2.4468,2.4467,2.4452,2.4445,2.4439,2.452,2.452,2.452,0,0,2.4479,2.4483,2.4465,2.4466,2.4468,2.4477,2.4472,2.4478,2.4482,2.4465,2.4483,2.4473,2.4459,2.4458,2.4456,2.4412,2.4425,2.4409,2.438,2.4365,2.4359,2.4354,2.4336,2.433,2.4405,2.4405,2.4405,0,2.4452,2.4438,2.4454,2.4441,2.4438,2.4461,2.4443,2.4443,2.4442,2.4439,2.4453,2.4435,2.4437,2.4413,2.4402,2.44,2.4394,2.4408,2.4359,2.4354,2.4349,2.4333,2.4326,2.4403,2.4403,2.4404,2.4404,0,2.4404,2.4394,2.4379,2.4378,2.4374,2.4358,2.4371,2.4365,2.4376,2.4382,2.4364,2.4367,2.4361,2.4357,2.4367,2.4333,2.434,2.4356,2.4378,2.434,2.4325,2.4318,2.44,2.4401,2.4402,2.4402,0,0,2.4337,2.4346,2.434,2.434,2.4344,2.4336,2.4321,2.4315,2.4309,2.4308,2.4294,2.4282,2.4296,2.4294,2.4304,2.4291,2.4253,2.4308,2.4308,2.4296,2.4215,2.4202,2.4195,2.4263,2.4262,2.4261,2.4215,0,2.4293,2.4268,2.4283,2.4255,2.4245,2.4267,2.4254,2.4254,2.426,2.4252,2.4258,2.4248,2.4269,2.4267,2.4255,2.4261,2.4237,2.4264,2.4249,2.4249,2.4247,2.4187,2.4174,2.413,2.4209,2.4208,2.4207,0,2.4239,2.4236,2.4207,2.4213,2.4209,2.4197,2.4192,2.4185,2.4186,2.4191,2.4188,2.4201,2.4186,2.4209,2.4187,2.4206,2.4201,2.4202,2.4201,2.4199,2.4224,2.4182,2.4116,2.4109,2.4198,2.4199,2.42,0,2.4191,2.418,2.4161,2.416,2.4167,2.4157,2.4159,2.4162,2.4157,2.4153,2.415,2.4144,2.4141,2.4135,2.4147,2.4163,2.4122,2.4147,2.4125,2.4124,2.4114,2.4114,2.4045,2.4113,2.4114,2.4114,2.4114,0,2.4139,2.4121,2.414,2.4128,2.4107,2.4124,2.4103,2.4107,2.4109,2.4098,2.4117,2.4106,2.4122,2.4112,2.4121,2.4101,2.4099,2.4102,2.4104,2.4099,2.4099,2.4095,2.4098,2.4112,2.4112,2.4113,2.4113,0,2.4082,2.4094,2.4075,2.4082,2.4084,2.4068,2.4075,2.4064,2.4071,2.4057,2.4054,2.4065,2.4055,2.4066,2.4056,2.4062,2.4034,2.4042,2.4034,2.4035,2.4012,2.4013,2.3936,2.3926,2.4002,2.4002,2.4001,0,2.4047,2.4033,2.404,2.4034,2.4035,2.4026,2.4021,2.4037,2.4032,2.4031,2.402,2.4011,2.4005,2.3987,2.3993,2.3986,2.3992,2.3966,2.3991,2.3986,2.399,2.399,2.3988,2.396,2.3959,2.3958,2.3958,0,2.3984,2.3991,2.3984,2.398,2.3974,2.3971,2.3969,2.3963,2.3979,2.3972,2.3962,2.3957,2.3947,2.3938,2.3932,2.3933,2.3947,2.395,2.3944,2.3938,2.3934,2.3934,2.4018,2.3951,2.3952,2.3953,2.3953,2.3953,2.3936,2.3925,2.3927,2.3919,2.3919,2.3917,2.3907,2.3913,2.3905,2.3899,2.3909,2.3896,2.3896,2.389,2.389,2.3879,2.389,2.3882,2.3879,2.3877,2.3872,2.3937,2.3878,2.3878,2.3878,2.3879,2.3879,0,2.3873,2.3876,2.3868,2.3865,2.3858,2.3874,2.3873,2.3866,2.3854,2.3854,2.3848,2.3835,2.3826,2.3832,2.3824,2.3814,2.3821,2.3812,2.3812,2.3811,2.3864,2.3869,2.3807,2.3807,2.3807,2.3807,2.3807,2.3807,2.3839,2.382,2.3827,2.3808,2.3811,2.3799,2.3796,2.3794,2.3794,2.3779,2.3772,2.3777,2.3778,2.3771,2.3763,2.3765,2.376,2.3748,2.3752,2.3801,2.3808,2.3815,2.3819,2.3748,2.3748,2.3701,2.37,2.37]}]]